Year,Month,Day,Hour,Minute,Value (Times are PST for temperature in C)
2013,06,11,00,00,13.70
2013,06,11,00,05,13.70
2013,06,11,00,06,13.70
2013,06,11,00,07,13.70
2013,06,11,00,08,13.70
2013,06,11,00,09,13.70
2013,06,11,00,10,13.70
2013,06,11,00,11,13.70
2013,06,11,00,12,13.70
2013,06,11,00,13,13.80
2013,06,11,00,14,13.70
2013,06,11,00,15,13.70
2013,06,11,00,16,13.70
2013,06,11,00,17,13.80
2013,06,11,00,18,13.80
2013,06,11,00,19,13.80
2013,06,11,00,20,13.80
2013,06,11,00,21,13.80
2013,06,11,00,22,13.80
2013,06,11,00,23,13.90
2013,06,11,00,24,13.90
2013,06,11,00,25,13.90
2013,06,11,00,26,13.90
2013,06,11,00,27,13.90
2013,06,11,00,28,13.90
2013,06,11,00,29,13.90
2013,06,11,00,30,13.90
2013,06,11,00,31,13.90
2013,06,11,00,32,13.90
2013,06,11,00,33,13.90
2013,06,11,00,34,13.90
2013,06,11,00,35,13.90
2013,06,11,00,36,13.90
2013,06,11,00,37,14.00
2013,06,11,00,38,14.00
2013,06,11,00,39,14.10
2013,06,11,00,40,14.20
2013,06,11,00,41,14.20
2013,06,11,00,42,14.20
2013,06,11,00,43,14.20
2013,06,11,00,44,14.20
2013,06,11,00,45,14.30
2013,06,11,00,46,14.30
2013,06,11,00,47,14.40
2013,06,11,00,48,14.40
2013,06,11,00,49,14.40
2013,06,11,00,50,14.50
2013,06,11,00,51,14.50
2013,06,11,00,52,14.50
2013,06,11,00,53,14.50
2013,06,11,00,54,14.50
2013,06,11,00,55,14.50
2013,06,11,00,56,14.40
2013,06,11,00,57,14.40
2013,06,11,00,58,14.40
2013,06,11,00,59,14.30
2013,06,11,01,00,14.30
2013,06,11,01,01,14.30
2013,06,11,01,02,14.30
2013,06,11,01,03,14.30
2013,06,11,01,04,14.30
2013,06,11,01,05,14.30
2013,06,11,01,06,14.30
2013,06,11,01,07,14.30
2013,06,11,01,08,14.30
2013,06,11,01,09,14.40
2013,06,11,01,10,14.40
2013,06,11,01,11,14.40
2013,06,11,01,12,14.40
2013,06,11,01,13,14.40
2013,06,11,01,14,14.40
2013,06,11,01,15,14.40
2013,06,11,01,16,14.40
2013,06,11,01,17,14.40
2013,06,11,01,18,14.40
2013,06,11,01,19,14.40
2013,06,11,01,20,14.40
2013,06,11,01,21,14.40
2013,06,11,01,22,14.40
2013,06,11,01,23,14.40
2013,06,11,01,24,14.40
2013,06,11,01,25,14.40
2013,06,11,01,26,14.30
2013,06,11,01,27,14.30
2013,06,11,01,28,14.30
2013,06,11,01,29,14.30
2013,06,11,01,30,14.30
2013,06,11,01,31,14.30
2013,06,11,01,32,14.30
2013,06,11,01,33,14.30
2013,06,11,01,34,14.30
2013,06,11,01,35,14.20
2013,06,11,01,36,14.20
2013,06,11,01,37,14.20
2013,06,11,01,38,14.20
2013,06,11,01,39,14.20
2013,06,11,01,40,14.20
2013,06,11,01,41,14.20
2013,06,11,01,42,14.20
2013,06,11,01,43,14.20
2013,06,11,01,44,14.20
2013,06,11,01,45,14.10
2013,06,11,01,46,14.10
2013,06,11,01,47,14.10
2013,06,11,01,48,14.10
2013,06,11,01,49,14.10
2013,06,11,01,50,14.10
2013,06,11,01,51,14.10
2013,06,11,01,52,14.10
2013,06,11,01,53,14.10
2013,06,11,01,54,14.10
2013,06,11,01,55,14.10
2013,06,11,01,56,14.00
2013,06,11,01,57,14.00
2013,06,11,01,58,13.90
2013,06,11,01,59,13.90
2013,06,11,02,00,13.80
2013,06,11,02,01,13.80
2013,06,11,02,02,13.70
2013,06,11,02,03,13.70
2013,06,11,02,04,13.60
2013,06,11,02,05,13.60
2013,06,11,02,06,13.50
2013,06,11,02,07,13.50
2013,06,11,02,08,13.40
2013,06,11,02,09,13.30
2013,06,11,02,10,13.30
2013,06,11,02,11,13.20
2013,06,11,02,12,13.20
2013,06,11,02,13,13.20
2013,06,11,02,14,13.10
2013,06,11,02,15,13.10
2013,06,11,02,16,13.10
2013,06,11,02,17,13.10
2013,06,11,02,18,13.10
2013,06,11,02,19,13.10
2013,06,11,02,20,13.00
2013,06,11,02,21,12.90
2013,06,11,02,22,12.90
2013,06,11,02,23,12.90
2013,06,11,02,24,12.90
2013,06,11,02,25,12.90
2013,06,11,02,26,12.90
2013,06,11,02,27,12.80
2013,06,11,02,28,12.90
2013,06,11,02,29,12.90
2013,06,11,02,30,12.90
2013,06,11,02,31,12.90
2013,06,11,02,32,12.90
2013,06,11,02,33,12.90
2013,06,11,02,34,12.90
2013,06,11,02,35,12.90
2013,06,11,02,36,12.90
2013,06,11,02,37,12.90
2013,06,11,02,38,12.90
2013,06,11,02,39,12.90
2013,06,11,02,40,12.90
2013,06,11,02,41,12.90
2013,06,11,02,42,12.90
2013,06,11,02,43,12.90
2013,06,11,02,44,13.00
2013,06,11,02,45,13.00
2013,06,11,02,46,13.00
2013,06,11,02,47,13.00
2013,06,11,02,48,13.10
2013,06,11,02,49,13.10
2013,06,11,02,50,13.10
2013,06,11,02,51,13.10
2013,06,11,02,52,13.20
2013,06,11,02,53,13.20
2013,06,11,02,54,13.20
2013,06,11,02,55,13.20
2013,06,11,02,56,13.20
2013,06,11,02,57,13.20
2013,06,11,02,58,13.20
2013,06,11,02,59,13.20
2013,06,11,03,00,13.20
2013,06,11,03,01,13.20
2013,06,11,03,02,13.20
2013,06,11,03,03,13.30
2013,06,11,03,04,13.30
2013,06,11,03,05,13.30
2013,06,11,03,06,13.30
2013,06,11,03,07,13.30
2013,06,11,03,08,13.30
2013,06,11,03,09,13.30
2013,06,11,03,10,13.40
2013,06,11,03,11,13.40
2013,06,11,03,12,13.40
2013,06,11,03,13,13.40
2013,06,11,03,14,13.40
2013,06,11,03,15,13.40
2013,06,11,03,16,13.30
2013,06,11,03,17,13.30
2013,06,11,03,18,13.30
2013,06,11,03,19,13.20
2013,06,11,03,20,13.20
2013,06,11,03,21,13.10
2013,06,11,03,22,13.10
2013,06,11,03,23,13.10
2013,06,11,03,24,13.00
2013,06,11,03,25,12.90
2013,06,11,03,26,12.80
2013,06,11,03,27,12.80
2013,06,11,03,28,12.70
2013,06,11,03,29,12.70
2013,06,11,03,30,12.60
2013,06,11,03,31,12.60
2013,06,11,03,32,12.60
2013,06,11,03,33,12.50
2013,06,11,03,34,12.50
2013,06,11,03,35,12.40
2013,06,11,03,36,12.40
2013,06,11,03,37,12.40
2013,06,11,03,38,12.30
2013,06,11,03,39,12.30
2013,06,11,03,40,12.30
2013,06,11,03,41,12.20
2013,06,11,03,42,12.20
2013,06,11,03,43,12.20
2013,06,11,03,44,12.20
2013,06,11,03,45,12.20
2013,06,11,03,46,12.20
2013,06,11,03,47,12.10
2013,06,11,03,48,12.10
2013,06,11,03,49,12.10
2013,06,11,03,50,12.10
2013,06,11,03,51,12.10
2013,06,11,03,52,12.00
2013,06,11,03,53,12.00
2013,06,11,03,54,12.00
2013,06,11,03,55,12.00
2013,06,11,03,56,11.90
2013,06,11,03,57,11.90
2013,06,11,03,58,11.90
2013,06,11,03,59,11.90
2013,06,11,04,00,11.90
2013,06,11,04,01,11.90
2013,06,11,04,02,11.90
2013,06,11,04,03,11.90
2013,06,11,04,04,11.90
2013,06,11,04,05,11.90
2013,06,11,04,06,11.90
2013,06,11,04,07,11.90
2013,06,11,04,08,11.90
2013,06,11,04,09,11.90
2013,06,11,04,10,11.90
2013,06,11,04,11,11.90
2013,06,11,04,12,11.90
2013,06,11,04,13,11.90
2013,06,11,04,14,11.90
2013,06,11,04,15,11.90
2013,06,11,04,16,11.90
2013,06,11,04,17,11.90
2013,06,11,04,18,11.90
2013,06,11,04,19,11.90
2013,06,11,04,20,11.90
2013,06,11,04,21,11.90
2013,06,11,04,22,11.90
2013,06,11,04,23,11.90
2013,06,11,04,24,11.90
2013,06,11,04,25,11.90
2013,06,11,04,26,11.90
2013,06,11,04,27,11.90
2013,06,11,04,28,11.90
2013,06,11,04,29,11.90
2013,06,11,04,30,11.90
2013,06,11,04,31,11.90
2013,06,11,04,32,11.90
2013,06,11,04,33,11.90
2013,06,11,04,34,11.90
2013,06,11,04,35,12.00
2013,06,11,04,36,12.00
2013,06,11,04,37,12.00
2013,06,11,04,38,12.00
2013,06,11,04,39,12.10
2013,06,11,04,40,12.10
2013,06,11,04,41,12.10
2013,06,11,04,42,12.10
2013,06,11,04,43,12.10
2013,06,11,04,44,12.10
2013,06,11,04,45,12.10
2013,06,11,04,46,12.10
2013,06,11,04,47,12.10
2013,06,11,04,48,12.20
2013,06,11,04,49,12.20
2013,06,11,04,50,12.20
2013,06,11,04,51,12.20
2013,06,11,04,52,12.20
2013,06,11,04,53,12.20
2013,06,11,04,54,12.20
2013,06,11,04,55,12.20
2013,06,11,04,56,12.20
2013,06,11,04,57,12.20
2013,06,11,04,58,12.20
2013,06,11,04,59,12.30
2013,06,11,05,00,12.20
2013,06,11,05,01,12.20
2013,06,11,05,02,12.20
2013,06,11,05,03,12.20
2013,06,11,05,04,12.20
2013,06,11,05,05,12.20
2013,06,11,05,06,12.20
2013,06,11,05,07,12.20
2013,06,11,05,08,12.20
2013,06,11,05,09,12.20
2013,06,11,05,10,12.20
2013,06,11,05,11,12.20
2013,06,11,05,12,12.20
2013,06,11,05,13,12.20
2013,06,11,05,14,12.20
2013,06,11,05,15,12.20
2013,06,11,05,16,12.20
2013,06,11,05,17,12.20
2013,06,11,05,18,12.20
2013,06,11,05,19,12.10
2013,06,11,05,20,12.10
2013,06,11,05,21,12.10
2013,06,11,05,22,12.10
2013,06,11,05,23,12.10
2013,06,11,05,24,12.10
2013,06,11,05,25,12.10
2013,06,11,05,26,12.10
2013,06,11,05,27,12.10
2013,06,11,05,28,12.10
2013,06,11,05,29,12.10
2013,06,11,05,30,12.10
2013,06,11,05,31,12.10
2013,06,11,05,32,12.10
2013,06,11,05,33,12.10
2013,06,11,05,34,12.10
2013,06,11,05,35,12.10
2013,06,11,05,36,12.20
2013,06,11,05,37,12.20
2013,06,11,05,38,12.20
2013,06,11,05,39,12.20
2013,06,11,05,40,12.20
2013,06,11,05,41,12.20
2013,06,11,05,42,12.20
2013,06,11,05,43,12.20
2013,06,11,05,44,12.20
2013,06,11,05,45,12.30
2013,06,11,05,46,12.20
2013,06,11,05,47,12.20
2013,06,11,05,48,12.20
2013,06,11,05,49,12.20
2013,06,11,05,50,12.20
2013,06,11,05,51,12.20
2013,06,11,05,52,12.10
2013,06,11,05,53,12.00
2013,06,11,05,54,11.90
2013,06,11,05,55,11.80
2013,06,11,05,56,11.80
2013,06,11,05,57,11.70
2013,06,11,05,58,11.60
2013,06,11,05,59,11.60
2013,06,11,06,00,11.60
2013,06,11,06,01,11.50
2013,06,11,06,02,11.40
2013,06,11,06,03,11.30
2013,06,11,06,04,11.30
2013,06,11,06,05,11.20
2013,06,11,06,06,11.20
2013,06,11,06,07,11.20
2013,06,11,06,08,11.10
2013,06,11,06,09,11.10
2013,06,11,06,10,11.10
2013,06,11,06,11,11.00
2013,06,11,06,12,11.00
2013,06,11,06,13,10.90
2013,06,11,06,14,10.90
2013,06,11,06,15,10.90
2013,06,11,06,16,10.90
2013,06,11,06,17,10.90
2013,06,11,06,18,10.80
2013,06,11,06,19,10.80
2013,06,11,06,20,10.80
2013,06,11,06,21,10.80
2013,06,11,06,22,10.80
2013,06,11,06,23,10.80
2013,06,11,06,24,10.80
2013,06,11,06,25,10.70
2013,06,11,06,26,10.80
2013,06,11,06,27,10.80
2013,06,11,06,28,10.80
2013,06,11,06,29,10.80
2013,06,11,06,30,10.90
2013,06,11,06,31,10.90
2013,06,11,06,32,10.90
2013,06,11,06,33,10.80
2013,06,11,06,34,10.80
2013,06,11,06,35,10.80
2013,06,11,06,36,10.80
2013,06,11,06,37,10.80
2013,06,11,06,38,10.80
2013,06,11,06,39,10.80
2013,06,11,06,40,10.70
2013,06,11,06,41,10.70
2013,06,11,06,42,10.70
2013,06,11,06,43,10.70
2013,06,11,06,44,10.70
2013,06,11,06,45,10.70
2013,06,11,06,46,10.70
2013,06,11,06,47,10.70
2013,06,11,06,48,10.70
2013,06,11,06,49,10.70
2013,06,11,06,50,10.70
2013,06,11,06,51,10.70
2013,06,11,06,52,10.70
2013,06,11,06,53,10.70
2013,06,11,06,54,10.70
2013,06,11,06,55,10.80
2013,06,11,06,56,10.80
2013,06,11,06,57,10.70
2013,06,11,06,58,10.70
2013,06,11,06,59,10.70
2013,06,11,07,00,10.70
2013,06,11,07,01,10.60
2013,06,11,07,02,10.50
2013,06,11,07,03,10.50
2013,06,11,07,04,10.70
2013,06,11,07,05,10.70
2013,06,11,07,06,10.80
2013,06,11,07,07,10.80
2013,06,11,07,08,10.80
2013,06,11,07,09,10.90
2013,06,11,07,10,10.90
2013,06,11,07,11,10.90
2013,06,11,07,12,11.00
2013,06,11,07,13,11.00
2013,06,11,07,14,11.10
2013,06,11,07,15,11.20
2013,06,11,07,16,11.20
2013,06,11,07,17,11.20
2013,06,11,07,18,11.20
2013,06,11,07,19,11.30
2013,06,11,07,20,11.30
2013,06,11,07,21,11.30
2013,06,11,07,22,11.30
2013,06,11,07,23,11.30
2013,06,11,07,24,11.30
2013,06,11,07,25,11.30
2013,06,11,07,26,11.40
2013,06,11,07,27,11.40
2013,06,11,07,28,11.40
2013,06,11,07,29,11.40
2013,06,11,07,30,11.40
2013,06,11,07,31,11.50
2013,06,11,07,32,11.50
2013,06,11,07,33,11.50
2013,06,11,07,34,11.50
2013,06,11,07,35,11.60
2013,06,11,07,36,11.60
2013,06,11,07,37,11.60
2013,06,11,07,38,11.60
2013,06,11,07,39,11.60
2013,06,11,07,40,11.70
2013,06,11,07,41,11.70
2013,06,11,07,42,11.70
2013,06,11,07,43,11.70
2013,06,11,07,44,11.70
2013,06,11,07,45,11.60
2013,06,11,07,46,11.60
2013,06,11,07,47,11.60
2013,06,11,07,48,11.60
2013,06,11,07,49,11.60
2013,06,11,07,50,11.70
2013,06,11,07,51,11.70
2013,06,11,07,52,11.70
2013,06,11,07,53,11.70
2013,06,11,07,54,11.70
2013,06,11,07,55,11.70
2013,06,11,07,56,11.70
2013,06,11,07,57,11.70
2013,06,11,07,58,11.70
2013,06,11,07,59,11.70
2013,06,11,08,00,11.70
2013,06,11,08,01,11.80
2013,06,11,08,02,11.80
2013,06,11,08,03,11.80
2013,06,11,08,04,11.80
2013,06,11,08,05,11.80
2013,06,11,08,06,11.80
2013,06,11,08,07,11.80
2013,06,11,08,08,11.80
2013,06,11,08,09,11.90
2013,06,11,08,10,11.90
2013,06,11,08,11,11.90
2013,06,11,08,12,12.00
2013,06,11,08,13,12.10
2013,06,11,08,14,12.20
2013,06,11,08,15,12.20
2013,06,11,08,16,12.20
2013,06,11,08,17,12.30
2013,06,11,08,18,12.40
2013,06,11,08,19,12.40
2013,06,11,08,20,12.40
2013,06,11,08,21,12.40
2013,06,11,08,22,12.50
2013,06,11,08,23,12.60
2013,06,11,08,24,12.70
2013,06,11,08,25,12.70
2013,06,11,08,26,12.80
2013,06,11,08,27,12.90
2013,06,11,08,28,12.90
2013,06,11,08,29,12.90
2013,06,11,08,30,12.90
2013,06,11,08,31,12.90
2013,06,11,08,32,13.00
2013,06,11,08,33,13.10
2013,06,11,08,34,13.20
2013,06,11,08,35,13.20
2013,06,11,08,36,13.30
2013,06,11,08,37,13.30
2013,06,11,08,38,13.40
2013,06,11,08,39,13.40
2013,06,11,08,40,13.50
2013,06,11,08,41,13.50
2013,06,11,08,42,13.60
2013,06,11,08,43,13.60
2013,06,11,08,44,13.60
2013,06,11,08,45,13.70
2013,06,11,08,46,13.70
2013,06,11,08,47,13.70
2013,06,11,08,48,13.70
2013,06,11,08,49,13.80
2013,06,11,08,50,13.80
2013,06,11,08,51,13.90
2013,06,11,08,52,13.90
2013,06,11,08,53,14.00
2013,06,11,08,54,14.00
2013,06,11,08,55,14.10
2013,06,11,08,56,14.10
2013,06,11,08,57,14.20
2013,06,11,08,58,14.20
2013,06,11,08,59,14.20
2013,06,11,09,00,14.30
2013,06,11,09,01,14.30
2013,06,11,09,02,14.30
2013,06,11,09,03,14.40
2013,06,11,09,04,14.40
2013,06,11,09,05,14.50
2013,06,11,09,06,14.60
2013,06,11,09,07,14.80
2013,06,11,09,08,14.90
2013,06,11,09,09,15.00
2013,06,11,09,10,15.00
2013,06,11,09,11,14.90
2013,06,11,09,12,15.00
2013,06,11,09,13,15.10
2013,06,11,09,14,15.10
2013,06,11,09,15,15.20
2013,06,11,09,16,15.20
2013,06,11,09,17,15.20
2013,06,11,09,18,15.20
2013,06,11,09,19,15.30
2013,06,11,09,20,15.30
2013,06,11,09,21,15.30
2013,06,11,09,22,15.30
2013,06,11,09,23,15.30
2013,06,11,09,24,15.30
2013,06,11,09,25,15.30
2013,06,11,09,26,15.40
2013,06,11,09,27,15.50
2013,06,11,09,28,15.60
2013,06,11,09,29,15.60
2013,06,11,09,30,15.60
2013,06,11,09,31,15.60
2013,06,11,09,32,15.60
2013,06,11,09,33,15.50
2013,06,11,09,34,15.50
2013,06,11,09,35,15.50
2013,06,11,09,36,15.50
2013,06,11,09,37,15.60
2013,06,11,09,38,15.50
2013,06,11,09,39,15.50
2013,06,11,09,40,15.50
2013,06,11,09,41,15.40
2013,06,11,09,42,15.40
2013,06,11,09,43,15.40
2013,06,11,09,44,15.30
2013,06,11,09,45,15.30
2013,06,11,09,46,15.40
2013,06,11,09,47,15.40
2013,06,11,09,48,15.50
2013,06,11,09,49,15.60
2013,06,11,09,50,15.60
2013,06,11,09,51,15.50
2013,06,11,09,52,15.40
2013,06,11,09,53,15.40
2013,06,11,09,54,15.40
2013,06,11,09,55,15.40
2013,06,11,09,56,15.40
2013,06,11,09,57,15.40
2013,06,11,09,58,15.40
2013,06,11,09,59,15.40
2013,06,11,10,00,15.50
2013,06,11,10,01,15.60
2013,06,11,10,02,15.60
2013,06,11,10,03,15.60
2013,06,11,10,04,15.60
2013,06,11,10,05,15.50
2013,06,11,10,06,15.50
2013,06,11,10,07,15.50
2013,06,11,10,08,15.50
2013,06,11,10,09,15.60
2013,06,11,10,10,15.60
2013,06,11,10,11,15.70
2013,06,11,10,12,15.80
2013,06,11,10,13,15.80
2013,06,11,10,14,15.80
2013,06,11,10,15,15.80
2013,06,11,10,16,15.80
2013,06,11,10,17,15.90
2013,06,11,10,18,15.80
2013,06,11,10,19,15.90
2013,06,11,10,20,15.90
2013,06,11,10,21,15.80
2013,06,11,10,22,15.90
2013,06,11,10,23,15.90
2013,06,11,10,24,15.90
2013,06,11,10,25,15.90
2013,06,11,10,26,15.90
2013,06,11,10,27,15.90
2013,06,11,10,28,15.90
2013,06,11,10,29,16.00
2013,06,11,10,30,16.10
2013,06,11,10,31,16.10
2013,06,11,10,32,16.10
2013,06,11,10,33,16.20
2013,06,11,10,34,16.30
2013,06,11,10,35,16.30
2013,06,11,10,36,16.40
2013,06,11,10,37,16.40
2013,06,11,10,38,16.50
2013,06,11,10,39,16.50
2013,06,11,10,40,16.40
2013,06,11,10,41,16.40
2013,06,11,10,42,16.40
2013,06,11,10,43,16.40
2013,06,11,10,44,16.30
2013,06,11,10,45,16.20
2013,06,11,10,46,16.00
2013,06,11,10,47,15.90
2013,06,11,10,48,15.90
2013,06,11,10,49,15.80
2013,06,11,10,50,15.80
2013,06,11,10,51,15.80
2013,06,11,10,52,15.80
2013,06,11,10,53,15.80
2013,06,11,10,54,15.70
2013,06,11,10,55,15.70
2013,06,11,10,56,15.80
2013,06,11,10,57,15.70
2013,06,11,10,58,15.70
2013,06,11,10,59,15.70
2013,06,11,11,00,15.70
2013,06,11,11,01,15.70
2013,06,11,11,02,15.80
2013,06,11,11,03,15.80
2013,06,11,11,04,15.70
2013,06,11,11,05,15.60
2013,06,11,11,06,15.60
2013,06,11,11,07,15.60
2013,06,11,11,08,15.50
2013,06,11,11,09,15.50
2013,06,11,11,10,15.40
2013,06,11,11,11,15.40
2013,06,11,11,12,15.40
2013,06,11,11,13,15.40
2013,06,11,11,14,15.40
2013,06,11,11,15,15.40
2013,06,11,11,16,15.40
2013,06,11,11,17,15.40
2013,06,11,11,18,15.40
2013,06,11,11,19,15.40
2013,06,11,11,20,15.50
2013,06,11,11,21,15.60
2013,06,11,11,22,15.70
2013,06,11,11,23,15.80
2013,06,11,11,24,15.80
2013,06,11,11,25,15.80
2013,06,11,11,26,15.80
2013,06,11,11,27,15.70
2013,06,11,11,28,15.70
2013,06,11,11,29,15.70
2013,06,11,11,30,15.70
2013,06,11,11,31,15.60
2013,06,11,11,32,15.60
2013,06,11,11,33,15.50
2013,06,11,11,34,15.50
2013,06,11,11,35,15.50
2013,06,11,11,36,15.40
2013,06,11,11,37,15.40
2013,06,11,11,38,15.40
2013,06,11,11,39,15.30
2013,06,11,11,40,15.30
2013,06,11,11,41,15.20
2013,06,11,11,42,15.20
2013,06,11,11,43,15.10
2013,06,11,11,44,15.10
2013,06,11,11,45,15.10
2013,06,11,11,46,15.10
2013,06,11,11,47,15.10
2013,06,11,11,48,15.10
2013,06,11,11,49,15.10
2013,06,11,11,50,15.00
2013,06,11,11,51,15.10
2013,06,11,11,52,15.10
2013,06,11,11,53,15.10
2013,06,11,11,54,15.20
2013,06,11,11,55,15.20
2013,06,11,11,56,15.20
2013,06,11,11,57,15.30
2013,06,11,11,58,15.30
2013,06,11,11,59,15.40
2013,06,11,12,00,15.50
2013,06,11,12,01,15.60
2013,06,11,12,02,15.60
2013,06,11,12,03,15.70
2013,06,11,12,04,15.70
2013,06,11,12,05,15.70
2013,06,11,12,06,15.70
2013,06,11,12,07,15.70
2013,06,11,12,08,15.80
2013,06,11,12,09,15.80
2013,06,11,12,10,15.90
2013,06,11,12,11,16.00
2013,06,11,12,12,16.00
2013,06,11,12,13,16.10
2013,06,11,12,14,16.20
2013,06,11,12,15,16.10
2013,06,11,12,16,16.00
2013,06,11,12,17,15.90
2013,06,11,12,18,15.70
2013,06,11,12,19,15.60
2013,06,11,12,20,15.40
2013,06,11,12,21,15.30
2013,06,11,12,22,15.20
2013,06,11,12,23,15.10
2013,06,11,12,24,15.00
2013,06,11,12,25,14.90
2013,06,11,12,26,14.90
2013,06,11,12,27,14.80
2013,06,11,12,28,14.80
2013,06,11,12,29,14.80
2013,06,11,12,30,14.80
2013,06,11,12,31,14.70
2013,06,11,12,32,14.60
2013,06,11,12,33,14.50
2013,06,11,12,34,14.40
2013,06,11,12,35,14.40
2013,06,11,12,36,14.30
2013,06,11,12,37,14.30
2013,06,11,12,38,14.30
2013,06,11,12,39,14.30
2013,06,11,12,40,14.30
2013,06,11,12,41,14.30
2013,06,11,12,42,14.30
2013,06,11,12,43,14.30
2013,06,11,12,44,14.30
2013,06,11,12,45,14.30
2013,06,11,12,46,14.30
2013,06,11,12,47,14.30
2013,06,11,12,48,14.30
2013,06,11,12,49,14.30
2013,06,11,12,50,14.30
2013,06,11,12,51,14.40
2013,06,11,12,52,14.40
2013,06,11,12,53,14.50
2013,06,11,12,54,14.60
2013,06,11,12,55,14.70
2013,06,11,12,56,14.90
2013,06,11,12,57,15.10
2013,06,11,12,58,15.40
2013,06,11,12,59,15.60
2013,06,11,13,00,15.90
2013,06,11,13,01,16.10
2013,06,11,13,02,16.30
2013,06,11,13,03,16.50
2013,06,11,13,04,16.60
2013,06,11,13,05,16.70
2013,06,11,13,06,16.70
2013,06,11,13,07,16.70
2013,06,11,13,08,16.80
2013,06,11,13,09,16.90
2013,06,11,13,10,16.80
2013,06,11,13,11,16.70
2013,06,11,13,12,16.70
2013,06,11,13,13,16.70
2013,06,11,13,14,16.70
2013,06,11,13,15,16.80
2013,06,11,13,16,16.80
2013,06,11,13,17,16.80
2013,06,11,13,18,16.70
2013,06,11,13,19,16.60
2013,06,11,13,20,16.50
2013,06,11,13,21,16.40
2013,06,11,13,22,16.30
2013,06,11,13,23,16.30
2013,06,11,13,24,16.30
2013,06,11,13,25,16.20
2013,06,11,13,26,16.20
2013,06,11,13,27,16.20
2013,06,11,13,28,16.20
2013,06,11,13,29,16.20
2013,06,11,13,30,16.20
2013,06,11,13,31,16.20
2013,06,11,13,32,16.10
2013,06,11,13,33,16.10
2013,06,11,13,34,16.00
2013,06,11,13,35,15.90
2013,06,11,13,36,15.90
2013,06,11,13,37,15.90
2013,06,11,13,38,15.90
2013,06,11,13,39,15.90
2013,06,11,13,40,15.90
2013,06,11,13,41,15.90
2013,06,11,13,42,15.90
2013,06,11,13,43,15.90
2013,06,11,13,44,15.70
2013,06,11,13,45,15.70
2013,06,11,13,46,15.60
2013,06,11,13,47,15.50
2013,06,11,13,48,15.40
2013,06,11,13,49,15.40
2013,06,11,13,50,15.30
2013,06,11,13,51,15.30
2013,06,11,13,52,15.30
2013,06,11,13,53,15.30
2013,06,11,13,54,15.30
2013,06,11,13,55,15.30
2013,06,11,13,56,15.30
2013,06,11,13,57,15.30
2013,06,11,13,58,15.30
2013,06,11,13,59,15.30
2013,06,11,14,00,15.30
2013,06,11,14,01,15.40
2013,06,11,14,02,15.40
2013,06,11,14,03,15.50
2013,06,11,14,04,15.50
2013,06,11,14,05,15.50
2013,06,11,14,06,15.50
2013,06,11,14,07,15.40
2013,06,11,14,08,15.40
2013,06,11,14,09,15.40
2013,06,11,14,10,15.40
2013,06,11,14,11,15.40
2013,06,11,14,12,15.50
2013,06,11,14,13,15.60
2013,06,11,14,14,15.60
2013,06,11,14,15,15.70
2013,06,11,14,16,15.80
2013,06,11,14,17,15.80
2013,06,11,14,18,15.80
2013,06,11,14,19,15.80
2013,06,11,14,20,15.70
2013,06,11,14,21,15.70
2013,06,11,14,22,15.70
2013,06,11,14,23,15.60
2013,06,11,14,24,15.60
2013,06,11,14,25,15.60
2013,06,11,14,26,15.60
2013,06,11,14,27,15.60
2013,06,11,14,28,15.60
2013,06,11,14,29,15.60
2013,06,11,14,30,15.60
2013,06,11,14,31,15.70
2013,06,11,14,32,15.70
2013,06,11,14,33,15.70
2013,06,11,14,34,15.70
2013,06,11,14,35,15.70
2013,06,11,14,36,15.70
2013,06,11,14,37,15.70
2013,06,11,14,38,15.70
2013,06,11,14,39,15.70
2013,06,11,14,40,15.70
2013,06,11,14,41,15.70
2013,06,11,14,42,15.60
2013,06,11,14,43,15.60
2013,06,11,14,44,15.60
2013,06,11,14,45,15.60
2013,06,11,14,46,15.60
2013,06,11,14,47,15.60
2013,06,11,14,48,15.60
2013,06,11,14,49,15.60
2013,06,11,14,50,15.60
2013,06,11,14,51,15.60
2013,06,11,14,52,15.60
2013,06,11,14,53,15.60
2013,06,11,14,54,15.50
2013,06,11,14,55,15.40
2013,06,11,14,56,15.40
2013,06,11,14,57,15.40
2013,06,11,14,58,15.40
2013,06,11,14,59,15.40
2013,06,11,15,00,15.30
2013,06,11,15,01,15.30
2013,06,11,15,02,15.30
2013,06,11,15,03,15.40
2013,06,11,15,04,15.40
2013,06,11,15,05,15.50
2013,06,11,15,06,15.50
2013,06,11,15,07,15.50
2013,06,11,15,08,15.60
2013,06,11,15,09,15.60
2013,06,11,15,10,15.50
2013,06,11,15,11,15.50
2013,06,11,15,12,15.40
2013,06,11,15,13,15.40
2013,06,11,15,14,15.40
2013,06,11,15,15,15.30
2013,06,11,15,16,15.30
2013,06,11,15,17,15.20
2013,06,11,15,18,15.20
2013,06,11,15,19,15.20
2013,06,11,15,20,15.20
2013,06,11,15,21,15.10
2013,06,11,15,22,15.10
2013,06,11,15,23,15.10
2013,06,11,15,24,15.10
2013,06,11,15,25,15.10
2013,06,11,15,26,15.00
2013,06,11,15,27,14.90
2013,06,11,15,28,14.90
2013,06,11,15,29,14.90
2013,06,11,15,30,14.90
2013,06,11,15,31,14.90
2013,06,11,15,32,14.90
2013,06,11,15,33,14.80
2013,06,11,15,34,14.80
2013,06,11,15,35,14.70
2013,06,11,15,36,14.70
2013,06,11,15,37,14.70
2013,06,11,15,38,14.70
2013,06,11,15,39,14.60
2013,06,11,15,40,14.60
2013,06,11,15,41,14.60
2013,06,11,15,42,14.60
2013,06,11,15,43,14.70
2013,06,11,15,44,14.70
2013,06,11,15,45,14.70
2013,06,11,15,46,14.80
2013,06,11,15,47,14.80
2013,06,11,15,48,14.90
2013,06,11,15,49,14.90
2013,06,11,15,50,14.90
2013,06,11,15,51,14.90
2013,06,11,15,52,14.90
2013,06,11,15,53,14.90
2013,06,11,15,54,14.90
2013,06,11,15,55,14.90
2013,06,11,15,56,14.90
2013,06,11,15,57,14.80
2013,06,11,15,58,14.80
2013,06,11,15,59,14.80
2013,06,11,16,00,14.80
2013,06,11,16,01,14.80
2013,06,11,16,02,14.70
2013,06,11,16,03,14.80
2013,06,11,16,04,14.80
2013,06,11,16,05,14.80
2013,06,11,16,06,14.70
2013,06,11,16,07,14.70
2013,06,11,16,08,14.70
2013,06,11,16,09,14.80
2013,06,11,16,10,14.80
2013,06,11,16,11,14.80
2013,06,11,16,12,14.80
2013,06,11,16,13,14.80
2013,06,11,16,14,14.80
2013,06,11,16,15,14.80
2013,06,11,16,16,14.80
2013,06,11,16,17,14.90
2013,06,11,16,18,14.90
2013,06,11,16,19,15.00
2013,06,11,16,20,15.00
2013,06,11,16,21,15.10
2013,06,11,16,22,15.10
2013,06,11,16,23,15.10
2013,06,11,16,24,15.10
2013,06,11,16,25,15.20
2013,06,11,16,26,15.20
2013,06,11,16,27,15.20
2013,06,11,16,28,15.20
2013,06,11,16,29,15.20
2013,06,11,16,30,15.30
2013,06,11,16,31,15.30
2013,06,11,16,32,15.20
2013,06,11,16,33,15.20
2013,06,11,16,34,15.10
2013,06,11,16,35,15.10
2013,06,11,16,36,15.10
2013,06,11,16,37,15.00
2013,06,11,16,38,14.90
2013,06,11,16,39,14.90
2013,06,11,16,40,14.80
2013,06,11,16,41,14.80
2013,06,11,16,42,14.70
2013,06,11,16,43,14.70
2013,06,11,16,44,14.70
2013,06,11,16,45,14.60
2013,06,11,16,46,14.60
2013,06,11,16,47,14.60
2013,06,11,16,48,14.60
2013,06,11,16,49,14.50
2013,06,11,16,50,14.50
2013,06,11,16,51,14.50
2013,06,11,16,52,14.50
2013,06,11,16,53,14.40
2013,06,11,16,54,14.40
2013,06,11,16,55,14.40
2013,06,11,16,56,14.40
2013,06,11,16,57,14.40
2013,06,11,16,58,14.30
2013,06,11,16,59,14.30
2013,06,11,17,00,14.30
2013,06,11,17,01,14.30
2013,06,11,17,02,14.30
2013,06,11,17,03,14.30
2013,06,11,17,04,14.30
2013,06,11,17,05,14.20
2013,06,11,17,06,14.20
2013,06,11,17,07,14.20
2013,06,11,17,08,14.20
2013,06,11,17,09,14.20
2013,06,11,17,10,14.20
2013,06,11,17,11,14.20
2013,06,11,17,12,14.20
2013,06,11,17,13,14.20
2013,06,11,17,14,14.20
2013,06,11,17,15,14.20
2013,06,11,17,16,14.20
2013,06,11,17,17,14.20
2013,06,11,17,18,14.20
2013,06,11,17,19,14.20
2013,06,11,17,20,14.10
2013,06,11,17,21,14.10
2013,06,11,17,22,14.10
2013,06,11,17,23,14.10